This demonstration page uses our WeatherBlox Daily Observations layout. Learn more.

Left ArrowRight Arrow

38.88101, -77.10428

Hourly Observations for September 17, 2021

Temp ( °F °C ) Dew Point ( °F °C ) Humidity (%) Winds ( mph kmh ) Pressure ( in mb ) Visibility ( mi km ) Precip ( " mm )
12:30 am 00:30 Cloudy 73 22.8 70 21.1 90 90 NE 8 13 30.17 1022 10 16 N/A
12:52 am 00:52 Cloudy 74 23.3 70 21.1 88 88 NE 8 13 30.16 1021 10 16 N/A
1:52 am 01:52 Cloudy 74 23.3 70 21.1 88 88 NE 9 15 30.15 1021 10 16 N/A
2:11 am 02:11 Cloudy 74 23.3 70 21.1 88 88 NE 9 15 30.15 1021 10 16 N/A
2:52 am 02:52 Cloudy 74 23.3 70 21.1 88 88 NE 12 19 30.14 1021 10 16 N/A
3:28 am 03:28 Cloudy 74 23.3 70 21.1 88 88 ENE 10 17 30.15 1021 10 16 N/A
3:42 am 03:42 Cloudy 74 23.3 70 21.1 88 88 ENE 14 22 30.15 1021 10 16 N/A
3:52 am 03:52 Cloudy 73 22.8 70 21.1 90 90 ENE 9 15 30.15 1021 10 16 N/A
4:52 am 04:52 Cloudy 73 22.8 69 20.6 87 87 NE 8 13 30.15 1021 10 16 N/A
5:23 am 05:23 Cloudy 74 23.3 69 20.6 85 85 NE 8 13 30.16 1021 10 16 N/A
5:52 am 05:52 Cloudy 74 23.3 69 20.6 85 85 NE 7 11 30.17 1022 10 16 N/A
6:12 am 06:12 Cloudy 73 22.8 69 20.6 87 87 NE 10 17 30.18 1022 10 16 N/A
6:52 am 06:52 Cloudy with Drizzle 73 22.8 70 21.1 90 90 NNE 8 13 30.19 1022 6 10 0.00 0.00
7:12 am 07:12 Cloudy 73 22.8 69 20.6 87 87 NNE 10 17 30.19 1022 10 16 0.00 0.00
7:26 am 07:26 Mostly Cloudy 73 22.8 69 20.6 87 87 NNE 8 13 30.20 1023 10 16 0.00 0.00
7:52 am 07:52 Cloudy 74 23.3 69 20.6 85 85 N 8 13 30.20 1023 10 16 0.00 0.00
8:49 am 08:49 Mostly Cloudy 73 23 70 21 89 89 NNE 10 17 30.20 1023 10 16 N/A
8:52 am 08:52 Mostly Cloudy 74 23.3 69 20.6 85 85 N 10 17 30.20 1023 10 16 N/A
9:33 am 09:33 Cloudy with Drizzle 75 23.9 69 20.6 82 82 NE 10 17 30.21 1023 4 6 0.00 0.00
9:38 am 09:38 Cloudy with Drizzle 74 23.3 70 21.1 88 88 NE 9 15 30.21 1023 2 3 0.00 0.00
9:42 am 09:42 Cloudy with Light Rain 74 23.3 70 21.1 88 88 NE 9 15 30.21 1023 2 2 0.00 0.00
9:52 am 09:52 Cloudy with Light Rain 74 23.3 70 21.1 88 88 NNE 9 15 30.21 1023 2 3 0.01 0.25
9:59 am 09:59 Cloudy with Light Rain 74 23.3 70 21.1 88 88 NE 8 13 30.21 1023 2 3 0.00 0.00
10:08 am 10:08 Cloudy with Light Rain 74 23.3 70 21.1 88 88 NE 10 17 30.21 1023 5 8 0.00 0.00
10:14 am 10:14 Cloudy with Light Rain 74 23.3 70 21.1 88 88 NE 8 13 30.22 1023 4 6 0.00 0.00
10:26 am 10:26 Cloudy with Drizzle 74 23.3 70 21.1 88 88 NE 12 19 30.22 1023 6 10 0.00 0.00
10:52 am 10:52 Cloudy with Drizzle 74 23.3 71 21.7 91 91 NNE 9 15 30.21 1023 6 10 0.00 0.00
11:04 am 11:04 Cloudy with Drizzle 75 23.9 71 21.7 88 88 NNE 7 11 30.22 1023 10 16 0.00 0.00
11:52 am 11:52 Cloudy 77 25 71 21.7 82 82 NNE 9 15 30.20 1023 10 16 0.00 0.00
12:00 pm 12:00 Cloudy 78 25.6 71 21.7 79 79 NE 7 11 30.20 1023 10 16 N/A
12:52 pm 12:52 Cloudy 77 25 70 21.1 79 79 NE 9 15 30.19 1023 10 16 N/A
1:15 pm 13:15 Cloudy 78 25.6 70 21.1 76 76 NE 9 15 30.19 1022 10 16 N/A
1:52 pm 13:52 Cloudy 79 26.1 70 21.1 74 74 NE 8 13 30.17 1022 10 16 N/A
2:52 pm 14:52 Cloudy 80 26.7 70 21.1 71 71 NE 7 11 30.15 1021 10 16 N/A
3:52 pm 15:52 Cloudy 81 27.2 70 21.1 69 69 NNE 9 15 30.14 1021 10 16 N/A
4:52 pm 16:52 Mostly Cloudy 81 27.2 70 21.1 69 69 ENE 5 7 30.13 1020 10 16 N/A
5:52 pm 17:52 Mostly Cloudy 80 26.7 69 20.6 69 69 ENE 5 7 30.12 1020 10 16 N/A
6:52 pm 18:52 Mostly Cloudy with Light Rain 78 25.6 70 21.1 76 76 SE 6 9 30.12 1020 10 16 0.00 0.00
7:52 pm 19:52 Mostly Cloudy 77 25 69 20.6 77 77 ENE 7 11 30.11 1020 10 16 0.00 0.00
8:52 pm 20:52 Partly Cloudy 76 24.4 69 20.6 79 79 ENE 6 9 30.14 1021 10 16 N/A
9:52 pm 21:52 Mostly Clear 75 23.9 69 20.6 82 82 ENE 5 7 30.14 1021 10 16 N/A
10:52 pm 22:52 Mostly Clear 75 23.9 69 20.6 82 82 ENE 6 9 30.13 1020 10 16 N/A
11:52 pm 23:52 Mostly Clear 72 22.2 69 20.6 91 91 N 3 6 30.12 1020 10 16 N/A

Powered by AerisWeather